Content
SEND FEEDBACK

Daily
Averages
Monthly
Summary
Canada

VANCOUVER, BRITISH COLUMBIA


Home > North America > Canada > British Columbia
Elevation: 2 meters     Latitude: 49 11N     Longitude: 123 10W

WEATHER
 
SELECT A DAY
Number of Records: 253,051;   Date Range: 5/15/97 - 10/22/14
 
SHARE

PRINT THIS DATA

[ ← Previous Day ]
WEATHER ALMANAC - 17 APRIL, 2013
[ Next Day → ]
[ °F ]   °C
Weather ElementAverageHighLow
Temperature9.3 °C13 °C (1:55 pm)4 °C (12:35 am)
Dewpoint3.2 °C5 °C (10:35 am)1 °C (7:15 pm)
Humidity66.7 %87 % (12:35 am)50 % (7:15 pm)
Barometer1029.1 hPa1029.8 hPa (9:15 am)1028.4 hPa (12:35 am)
Wind Speed12.4 km/h22.2 km/h (4:55 am)
Wind Gust31.5 km/h (7:15 am)
Weather ElementAverage
Visibility16.1 km
Wind DirectionSSE (171.6 °)

Weather ElementTotal
Precipitation---
Heating Degree Days9.8 (Base 18.3)
Averaged from 67 records on 17 April, 2013
WEATHER CONDITIONS BREAKOUT
WIND DIRECTION BREAKOUT
WEATHER BY HOUR - 17 APRIL, 2013
[ °F ]   °C
Local TimeTemperatureDewpointHumidityBarometerVisibilityWind DirectionWind SpeedGust SpeedPrecipitationEventsConditions
12:35 AM4 °C2 °C87 %1028.4 hPa16.1 kmNorthClear
12:55 AM5 °C2 °C81 %1028.4 hPa16.1 kmCalmClear
1:15 AM5 °C2 °C81 %1028.8 hPa16.1 kmCalmClear
1:35 AM5 °C2 °C81 %1028.8 hPa16.1 kmCalmClear
1:55 AM5 °C2 °C81 %1028.8 hPa16.1 kmCalmClear
2:15 AM6 °C2 °C76 %1028.8 hPa16.1 kmCalmClear
2:35 AM6 °C2 °C76 %1028.8 hPa16.1 kmCalmClear
2:55 AM7 °C2 °C71 %1028.4 hPa16.1 kmSouth (180°)7.4 km/hClear
3:15 AM7 °C2 °C71 %1028.4 hPa16.1 kmSouth (190°)9.3 km/hClear
3:35 AM7 °C2 °C71 %1028.4 hPa16.1 kmSouth (190°)11.1 km/hClear
3:55 AM7 °C3 °C76 %1028.4 hPa16.1 kmSouth (190°)16.7 km/hClear
4:15 AM7 °C3 °C76 %1028.4 hPa16.1 kmSouth (190°)18.5 km/hClear
4:35 AM7 °C4 °C81 %1028.4 hPa16.1 kmSouth (190°)20.4 km/hClear
4:55 AM7 °C4 °C81 %1028.4 hPa16.1 kmSouth (190°)22.2 km/h27.8 km/hClear
5:15 AM7 °C3 °C76 %1028.4 hPa16.1 kmSouth (190°)14.8 km/h25.9 km/hClear
5:35 AM7 °C3 °C76 %1028.8 hPa16.1 kmSouth (180°)13 km/hMostly Cloudy
5:55 AM8 °C3 °C71 %1028.4 hPa16.1 kmSouth (190°)18.5 km/hOvercast
6:15 AM7 °C3 °C76 %1028.4 hPa16.1 kmSouth (190°)18.5 km/hOvercast
6:35 AM8 °C3 °C71 %1028.4 hPa16.1 kmSouth (190°)20.4 km/h27.8 km/hOvercast
6:55 AM7 °C3 °C76 %1028.4 hPa16.1 kmSouth (190°)18.5 km/h29.6 km/hPartly Cloudy
7:15 AM7 °C3 °C76 %1028.8 hPa16.1 kmSouth (190°)18.5 km/h31.5 km/hClear
7:35 AM8 °C3 °C71 %1029.1 hPa16.1 kmSouth (190°)22.2 km/hPartly Cloudy
7:55 AM8 °C3 °C71 %1029.1 hPa16.1 kmSouth (190°)18.5 km/hScattered Clouds
8:15 AM8 °C4 °C76 %1029.1 hPa16.1 kmSouth (190°)22.2 km/hOvercast
8:35 AM8 °C4 °C76 %1029.5 hPa16.1 kmSouth (180°)22.2 km/h29.6 km/hOvercast
9:15 AM8 °C4 °C76 %1029.8 hPa16.1 kmSouth (180°)18.5 km/hOvercast
9:35 AM9 °C4 °C71 %1029.8 hPa16.1 kmSouth (190°)20.4 km/h25.9 km/hOvercast
9:55 AM9 °C4 °C71 %1029.8 hPa16.1 kmSouth (180°)16.7 km/h31.5 km/hMostly Cloudy
10:15 AM9 °C4 °C71 %1029.8 hPa16.1 kmSouth (190°)20.4 km/h29.6 km/hOvercast
10:35 AM10 °C5 °C71 %1029.8 hPa16.1 kmSouth (180°)16.7 km/h25.9 km/hMostly Cloudy
10:55 AM10 °C4 °C66 %1029.8 hPa16.1 kmSouth (180°)13 km/h25.9 km/hMostly Cloudy
11:15 AM10 °C5 °C71 %1029.8 hPa16.1 kmSouth (180°)13 km/hPartly Cloudy
11:35 AM10 °C5 °C71 %1029.8 hPa16.1 kmSouth (180°)16.7 km/h29.6 km/hClear
11:55 AM11 °C5 °C67 %1029.8 hPa16.1 kmSouth (180°)16.7 km/h27.8 km/hPartly Cloudy
12:15 PM12 °C5 °C62 %1029.8 hPa16.1 kmSouth (190°)16.7 km/hPartly Cloudy
12:35 PM12 °C4 °C58 %1029.8 hPa16.1 kmSouth (190°)18.5 km/hPartly Cloudy
12:55 PM12 °C5 °C62 %1029.8 hPa16.1 kmSouth (170°)11.1 km/hClear
1:15 PM12 °C5 °C62 %1029.8 hPa16.1 kmSSE (160°)9.3 km/hClear
1:55 PM13 °C4 °C54 %1029.5 hPa16.1 kmSouth (170°)13 km/hClear
2:15 PM13 °C4 °C54 %1029.5 hPa16.1 kmSouth (170°)11.1 km/hClear
2:35 PM13 °C4 °C54 %1029.1 hPa16.1 kmSouth (180°)9.3 km/hClear
2:55 PM13 °C4 °C54 %1029.5 hPa16.1 kmSouth (190°)13 km/hPartly Cloudy
3:15 PM13 °C5 °C58 %1029.1 hPa16.1 kmSouth (170°)7.4 km/hPartly Cloudy
3:35 PM13 °C4 °C54 %1029.1 hPa16.1 kmSouth (170°)9.3 km/hClear
3:55 PM13 °C4 °C54 %1029.1 hPa16.1 kmSouth (170°)11.1 km/hClear
4:15 PM13 °C4 °C54 %1028.8 hPa16.1 kmSouth (170°)9.3 km/hClear
4:55 PM13 °C3 °C51 %1028.8 hPa16.1 kmSouth (180°)14.8 km/hPartly Cloudy
5:15 PM12 °C2 °C51 %1028.8 hPa16.1 kmSouth (180°)13 km/hScattered Clouds
5:35 PM12 °C2 °C51 %1028.8 hPa16.1 kmSouth (180°)16.7 km/hMostly Cloudy
5:55 PM12 °C2 °C51 %1028.8 hPa16.1 kmSouth (180°)14.8 km/hScattered Clouds
6:15 PM12 °C2 °C51 %1028.8 hPa16.1 kmSouth (180°)11.1 km/hMostly Cloudy
6:35 PM12 °C2 °C51 %1028.8 hPa16.1 kmSouth (190°)13 km/hMostly Cloudy
6:55 PM12 °C2 °C51 %1029.1 hPa16.1 kmWSW (240°)11.1 km/hMostly Cloudy
7:15 PM11 °C1 °C50 %1029.1 hPa16.1 kmWest (280°)9.3 km/hScattered Clouds
7:35 PM10 °C2 °C58 %1029.1 hPa16.1 kmWest (260°)7.4 km/hScattered Clouds
7:55 PM10 °C2 °C58 %1029.5 hPa16.1 kmWSW (250°)9.3 km/hPartly Cloudy
8:15 PM10 °C3 °C62 %1029.5 hPa16.1 kmWest (270°)9.3 km/hPartly Cloudy
8:35 PM9 °C3 °C66 %1029.8 hPa16.1 kmWest (280°)13 km/hMostly Cloudy
8:55 PM9 °C3 °C66 %1029.5 hPa16.1 kmSSW (210°)7.4 km/hMostly Cloudy
9:35 PM9 °C3 °C66 %1029.8 hPa16.1 kmSW (220°)7.4 km/hMostly Cloudy
9:55 PM9 °C3 °C66 %1029.8 hPa16.1 kmSSW (200°)7.4 km/hPartly Cloudy
10:15 PM9 °C3 °C66 %1029.8 hPa16.1 kmCalmScattered Clouds
10:35 PM9 °C3 °C66 %1029.5 hPa16.1 kmSSW (210°)7.4 km/hMostly Cloudy
10:55 PM9 °C3 °C66 %1029.5 hPa16.1 kmSW (230°)7.4 km/hScattered Clouds
11:15 PM9 °C3 °C66 %1029.5 hPa16.1 kmSSW (200°)11.1 km/hClear
11:35 PM9 °C3 °C66 %1029.5 hPa16.1 kmSSW (210°)9.3 km/hClear
11:55 PM9 °C3 °C66 %1029.5 hPa16.1 kmSW (220°)9.3 km/hScattered Clouds
Hourly data recorded from CZBB, located 0 kilometers away from Vancouver, British Columbia







STORIES FROM OUR PARTNERS